Regional Weather Roundup
Issued by NWS

Home | Current Version | Previous Version | Graphics & Text | Print | Product List | Glossary On
Versions: 1 2 3 4 5 6 7 8 9 10 11 12 13 14 15 16 17 18 19 20 21 22 23 24 25 26 27 28 29 30 31 32 33 34 35 36 37 38 39 40 41 42 43 44 45 46 47 48 49 50
000
ASUS45 KCYS 260110
RWRWY

WYOMING REGIONAL WEATHER ROUNDUP
NATIONAL WEATHER SERVICE CHEYENNE WY
700 PM MDT FRI MAY 25 2018

NOTE:  "FAIR" INDICATES FEW OR NO CLOUDS BELOW 12,000 FEET
WITH NO SIGNIFICANT WEATHER AND/OR OBSTRUCTIONS TO VISIBILITY.

WYZ001-260200-
YELLOWSTONE NATIONAL PARK

CITY           SKY/WX    TMP DP  RH WIND       PRES   REMARKS
LK YELLOWSTONE   N/A     59  37  44 CALM      30.12F
W YELLOWSTONE  NOT AVBL

$$
WYZ002>013-054>058-071-098>099-260200-
NORTHERN WYOMING

CITY           SKY/WX    TMP DP  RH WIND       PRES   REMARKS
JACKSON        FAIR      75  36  24 W5        29.99F
CODY           FAIR      77  47  34 S12       29.93F
GREYBULL       FAIR      83  45  26 SE7       29.85F
WORLAND        FAIR      81  47  30 E9        29.87F
SHERIDAN       FAIR      79  52  38 CALM      29.89F
BUFFALO        FAIR      76  54  46 NW9       29.96S
GILLETTE       FAIR      81  49  32 NE3       29.91F
NEWCASTLE      FAIR      79  45  29 SE3       29.94S

$$
WYZ014>020-022>026-101>103-260200-
CENTRAL WYOMING

CITY           SKY/WX    TMP DP  RH WIND       PRES   REMARKS
BIG PINEY      FAIR      74  28  18 VRB3      30.03F
PINEDALE       FAIR      72  27  18 SE7       30.06F
DUBOIS           N/A     70  30  23 SW8       30.06F
LANDER         FAIR      78  48  34 NE3       29.94F
RIVERTON       FAIR      78  44  29 E9        29.96F
CASPER         FAIR      79  41  25 NE6       29.96F
DOUGLAS        FAIR      82  44  26 CALM      29.96F

$$
WYZ021-027>030-104>119-260200-
SOUTHERN WYOMING

CITY           SKY/WX    TMP DP  RH WIND       PRES   REMARKS
EVANSTON       FAIR      75  34  22 W6        30.01F
FORT BRIDGER   FAIR      80  21  11 SE10      30.04F
ROCK SPRINGS   FAIR      77  19  11 SW13      30.02F
DIXON          FAIR      81  20  10 S8        30.05F
RAWLINS        FAIR      79  19  10 SW8       30.05F
SARATOGA       FAIR      77  23  13 S12       30.09S
LARAMIE        FAIR      73  39  29 E10       30.10F
CHEYENNE       FAIR      75  41  29 SE8       30.05F
TORRINGTON     FAIR      83  54  36 NE6       29.91F
PINE BLUFFS    FAIR      79  45  29 SE5       29.99F

$$



USA.gov is the U.S. government's official web portal to all federal, state and local government web resources and services.